Flag for U.S.A. Weather past 2 weeks in Salinas, California, U.S.A.

Now
59 °F

Light rain. Mostly cloudy.


Feels Like: 56 °F
Forecast: 54 / 62 °F
Wind: 14 mph from Southeast

Location: Salinas Municipal Airport

Current Time: Dec 19, 2014 at 4:52:30 PM

Latest Report: Dec 19, 2014 at 3:53 PM


Visibility: 2 mi

Pressure: 30.17 "Hg

Humidity: 78%

Dew point: 52 °F

Location of SalinasLocation

Historic Weather in Salinas — Graph

°F

Salinas temperature yesterday

Maximum temperature yesterday: 62 °F (at 2:53 PM)
Minimum temperature yesterday: 52 °F (at 5:53 AM)
Average temperature yesterday: 55 °F

Past Weeks' High & Low Weather Summary

 TemperatureHumidityPressure
High71 °F (Dec 8, 2:53 PM)100% (Dec 11, 1:53 PM)30.26 "Hg (Dec 11, 1:53 PM)
Low48 °F (Dec 13, 12:53 AM)53% (Dec 8, 2:53 PM)29.64 "Hg (Dec 11, 2:53 PM)
Average57 °F81%30.06 "Hg
* Reported Dec 4 3:53 PM — Dec 19 3:53 PM, Salinas, Weather by CustomWeather, © 2014

Note: Actual official high and low records may vary slightly from our data, if they occured in-between our weather recording intervals... More about our weather records

Advertising

Salinas weather history for previous 24 hours

 ConditionsComfort  
Time TempWeatherWind HumidityBarometerVisibility
3:53 PM
Dec 19
59 °FLight rain. Mostly cloudy.14 mph78%30.17 "Hg2 mi
2:53 PM60 °FLight rain. Mostly cloudy.15 mph72%30.17 "Hg8 mi
1:53 PM61 °FMostly cloudy.17 mph70%30.16 "Hg10 mi
12:53 PM60 °FMostly cloudy.17 mph72%30.16 "Hg10 mi
11:53 AM58 °FSunny.16 mph78%30.19 "Hg10 mi
10:53 AM55 °FSunny.17 mph80%30.21 "Hg10 mi
9:53 AM54 °FMostly cloudy.12 mph80%30.25 "Hg10 mi
8:53 AM53 °FOvercast.10 mph83%30.22 "Hg10 mi
7:53 AM52 °FMore clouds than sun.14 mph83%30.19 "Hg10 mi
6:53 AM52 °FPassing clouds.21 mph83%30.18 "Hg10 mi
5:53 AM53 °FPassing clouds.18 mph80%30.18 "Hg10 mi
4:53 AM52 °FMostly cloudy.14 mph83%30.19 "Hg10 mi
3:53 AM51 °FPassing clouds.13 mph86%30.20 "Hg10 mi
2:53 AM51 °FPassing clouds.12 mph83%30.21 "Hg10 mi
1:53 AM52 °FClear.8 mph83%30.22 "Hg10 mi
12:53 AM51 °FClear.3 mph83%30.22 "Hg10 mi
11:53 PM
Dec 18
52 °FClear.7 mph83%30.22 "Hg10 mi
10:53 PM52 °FPassing clouds.3 mph83%30.22 "Hg10 mi
9:53 PM52 °FClear.3 mph86%30.22 "Hg10 mi
8:53 PM52 °FPassing clouds.No wind86%30.22 "Hg10 mi
7:53 PM53 °FClear.No wind83%30.20 "Hg10 mi
6:53 PM55 °FClear.No wind80%30.19 "Hg10 mi
5:53 PM56 °FClear.No wind81%30.19 "Hg10 mi
4:53 PM58 °FClear.3 mph78%30.16 "Hg10 mi
Weather by CustomWeather, © 2014

See weather overviewHow to use our weather pages